EW9501 Weather Reports


time (UTC)temp
C
wind
direction
speed
KPH
gust
KPH
rain 1hr
cm
rain 24hr
cm
rain mn
cm
humidity
%
barometer
mb
20260504001548 11 0.0 0.0 0.00 0.00 0.00 61 1011.1
20260504000044 12 0.0 0.0 0.00 0.00 0.00 60 1011.0
20260503234539 12 0.0 0.0 0.00 0.00 0.00 59 1011.0
20260503233042 13 0.0 0.0 0.00 0.00 0.00 57 1010.9
20260503231542 14 0.0 0.0 0.00 0.00 0.00 54 1010.8
20260503230037 15 0.0 0.0 0.00 0.00 0.00 38 1010.4
20260503224540 16 0.0 0.0 0.00 0.00 0.00 38 1010.4
20260503223035 16 0.0 0.0 0.00 0.00 0.00 38 1010.5
20260503221542 16 0.0 0.0 0.00 0.00 0.00 38 1010.5
20260503220034 16 0.0 0.0 0.00 0.00 0.00 36 1010.5
20260503214534 16 0.0 0.0 0.00 0.00 0.00 37 1010.5
20260503213034 16 0.0 0.0 0.00 0.00 0.00 35 1010.7
20260503211530 16 0.0 0.0 0.00 0.00 0.00 35 1010.7
20260503210043 16 0.0 0.0 0.00 0.00 0.00 36 1010.8
20260503204528 16 0.0 0.0 0.00 0.00 0.00 35 1010.9
20260503203029 17 0.0 0.0 0.00 0.00 0.00 34 1011.0
20260503201533 17 0.0 0.0 0.00 0.00 0.00 35 1011.3
20260503200026 17 0.0 0.0 0.00 0.00 0.00 36 1011.3
20260503194524 17 0.0 0.0 0.00 0.00 0.00 36 1011.5
20260503193023 17 0.0 0.0 0.00 0.00 0.00 35 1011.7
20260503191521 17 0.0 0.0 0.00 0.00 0.00 34 1011.9
20260503190020 17 0.0 0.0 0.00 0.00 0.00 33 1012.2
20260503184524 17 0.0 0.0 0.00 0.00 0.00 34 1012.5
20260503183022 17 0.0 0.0 0.00 0.00 0.00 35 1012.6
20260503181516 17 0.0 0.0 0.00 0.00 0.00 36 1012.7
20260503180015 16 0.0 0.0 0.00 0.00 0.00 37 1012.9
20260503174512 17 0.0 0.0 0.00 0.00 0.00 34 1013.0
20260503173011 16 0.0 0.0 0.00 0.00 0.00 35 1013.2
20260503171508 16 0.0 0.0 0.00 0.00 0.00 36 1013.5
20260503100114 1 0.0 0.0 0.00 0.05 0.00 81 1015.2
20260503090104 1 0.0 0.0 0.00 0.05 0.00 83 1015.4
20260503081558 1 0.0 0.0 0.00 0.05 0.00 79 1015.4
20260503071546 2 0.0 0.0 0.00 0.05 0.00 76 1015.5
20260503054538 3 0.0 0.0 0.00 0.05 0.00 71 1015.8
20260503053034 3 0.0 0.0 0.00 0.05 0.00 71 1015.9
20260503051533 3 0.0 0.0 0.00 0.05 0.00 71 1015.9
20260503050032 4 0.0 0.0 0.00 0.05 0.00 71 1016.0
20260503044539 4 0.0 0.0 0.00 0.05 0.00 71 1016.0
20260503043027 4 0.0 0.0 0.00 0.05 0.00 70 1015.9
20260503041524 5 0.0 0.0 0.00 0.05 0.00 70 1016.0
20260503040022 5 0.0 0.0 0.00 0.05 0.05 69 1016.0
20260503034522 5 0.0 0.0 0.00 0.05 0.05 70 1016.1
20260503033021 6 0.0 0.0 0.00 0.05 0.05 71 1016.1
20260503031521 6 0.0 0.0 0.00 0.05 0.05 71 1016.1
20260503030020 6 0.0 0.0 0.00 0.05 0.05 70 1016.2
20260503024521 6 0.0 0.0 0.00 0.05 0.05 68 1016.3
20260503023024 6 0.0 0.0 0.00 0.05 0.05 65 1016.3
20260503021519 6 0.0 0.0 0.00 0.05 0.05 65 1016.3
20260503020019 6 0.0 0.0 0.00 0.08 0.05 65 1016.3
20260503014518 6 0.0 0.0 0.00 0.08 0.05 61 1016.3
20260503013026 6 0.0 0.0 0.00 0.08 0.05 62 1016.2
20260503011517 6 0.0 0.0 0.00 0.08 0.05 60 1016.1
20260503010017 7 0.0 0.0 0.00 0.08 0.05 59 1016.1
20260503004517 7 0.0 0.0 0.00 0.08 0.05 55 1016.1
20260503003016 7 0.0 0.0 0.00 0.08 0.05 51 1016.0